Regional Weather Roundup
Issued by NWS

Home | Current Version | Previous Version | Text Only | Print | Product List | Glossary Off
Versions: 1 2 3 4 5 6 7 8 9 10 11 12 13 14 15 16 17 18 19 20 21 22 23 24 25 26 27 28 29 30 31 32 33 34 35 36 37 38 39 40 41 42 43 44 45 46 47 48 49 50

000
ASUS43 KMPX 291310
RWRMN
WEATHER ROUNDUP FOR MINNESOTA
NATIONAL WEATHER SERVICE TWIN CITIES/CHANHASSEN MN
800 AM CDT FRI MAY 29 2015


NOTE: "FAIR" INDICATES FEW OR NO CLOUDS BELOW 12,000 FEET WITH NO
SIGNIFICANT WEATHER AND/OR OBSTRUCTIONS TO VISIBILITY. N/A MEANS
CURRENT SKY AND/OR WEATHER CONDITIONS ARE NOT AVAILABLE.

MNZ060>063-068>070-291400-
   Twin Cities Metro

CITY           SKY/WX    TMP DP  RH WIND       PRES   REMARKS
TWIN CITIES    CLOUDY    66  63  90 S10       29.87S
ST PAUL        PTSUNNY   66  64  93 SE9       29.87F
CRYSTAL        PTSUNNY   69  64  84 S9        29.84F
BLAINE         PTSUNNY   70  66  88 S9        29.86S
LAKEVILLE      LGT RAIN  64  63  94 S8        29.88S
EDEN PRAIRIE   CLOUDY    67  64  90 S10       29.86S
SOUTH ST PAUL  MOSUNNY   66  65  96 S8        29.87F
LAKE ELMO      PTSUNNY   64  63  94 S9        29.89S
$$
MNZ001>005-007-008-013>017-022>024-027-028-291400-
   Northwest Minnesota

CITY           SKY/WX    TMP DP  RH WIND       PRES   REMARKS
BEMIDJI        RAIN      54  53  97 N16       29.93R
HALLOCK        CLOUDY    43  39  87 N22G28    30.10R
ROSEAU         CLOUDY    45  39  81 N16       30.04R
WARROAD        CLOUDY    45  41  87 NW18G26   30.03R
THIEF RVR FALL CLOUDY    46  43  87 N21G28    30.03R
CROOKSTON      CLOUDY    46  43  87 N23G30    30.05R
FOSSTON        CLOUDY    48  46  93 N21G28    30.00R
DETROIT LAKES  CLOUDY    54  52  94 N12G24    29.95R FOG
MOORHEAD       CLOUDY    46  45  93 N31G37    30.00R
PARK RAPIDS    LGT RAIN  60  56  86 N16G31    29.90R
MAHNOMEN       CLOUDY    50  48  93 N24       29.98R
$$
MNZ006-009>011-018-025>026-291400-
   North Central Minnesota

CITY           SKY/WX    TMP DP  RH WIND       PRES   REMARKS
BAUDETTE       CLOUDY    49  46  90 NW14G26   29.97R
FLAG ISLAND    CLOUDY    46  45  93 NW23G29   29.99R
INTL FALLS     CLOUDY    57  54  89 N13       29.89R
WASKISH        CLOUDY    52  50  93 NW13G23   29.95R FOG
BIG FORK       RAIN      59  57  94 NW8       29.89R
LONGVILLE      DRIZZLE   61  59  94 NW5       29.88R
GRAND RAPIDS   CLOUDY    61  55  82 NW8       29.87S
CRANE LAKE     CLOUDY    57  55  94 CALM      29.86S
ORR            CLOUDY    57  55  94 CALM      29.83S
COOK           CLOUDY    57  55  94 CALM      29.86S
WALKER         CLOUDY    57  55  95 N9G16     29.90R
$$
MNZ012-019>021-037-291400-
   Northeast Minnesota

CITY           SKY/WX    TMP DP  RH WIND       PRES   REMARKS
DULUTH         LGT RAIN  60  55  83 SW8       29.86S
HIBBING        LGT RAIN  55  51  86 SE3       29.86S
EVELETH        CLOUDY    57  54  88 CALM      29.88R
DULUTH HARBOR  CLOUDY    46  43  87 CALM      29.89R
TWO HARBORS    CLOUDY    57  54  88 CALM      29.85S
SILVER BAY     CLOUDY    55  52  88 CALM      29.84F
GRAND MARAIS     N/A     42  40  92 SW3       29.86F
G MARAIS ARPRT PTSUNNY   59  50  72 SW7       29.88S
$$
MNZ029>031-032-039>041-046>048-054>057-064-291400-
   West Central Minnesota

CITY           SKY/WX    TMP DP  RH WIND       PRES   REMARKS
FERGUS FALLS   CLOUDY    55  55 100 N17G23    29.93R FOG
WHEATON        CLOUDY    52  52 100 N20G28    29.96R FOG
MORRIS         CLOUDY    63  61  94 N8        29.89R
ALEXANDRIA     CLOUDY    62  59  90 N8        29.91R
ELBOW LAKE     CLOUDY    59  59  99 N14       29.91R
WADENA         CLOUDY    61  59  94 NW6       29.89S
GLENWOOD       PTSUNNY   63  59  88 CALM      29.90R
APPLETON       CLOUDY    63  61  94 N8        29.89R
BENSON         CLOUDY    63  57  82 N8        29.89R
ORTONVILLE     LGT RAIN  61  59  94 NW8       29.91R
MADISON        LGT RAIN  63  61  94 N12       29.89R
WILLMAR        CLOUDY    64  63  94 N6        29.89R
$$
MNZ033>034-036-042>043-049>051-058-059-291400-
   Central Minnesota

CITY           SKY/WX    TMP DP  RH WIND       PRES   REMARKS
ST CLOUD       CLOUDY    64  62  93 NW5       29.87R
SAUK CENTRE    PTSUNNY   63  59  87 N8        29.89R
PAYNESVILLE    CLOUDY    61  59  95 NW5       29.89S
AITKIN         CLOUDY    64  57  77 CALM      29.87R
PINE RIVER     CLOUDY    61  61 100 CALM      29.92R
BRAINERD       CLOUDY    63  59  87 NW5       29.89R
STAPLES        CLOUDY    61  59  94 NW6       29.89S
LONG PRAIRIE   CLOUDY    61  57  88 NW6       29.90R
LITTLE FALLS   CLOUDY    61  55  82 CALM      29.89R
LITCHFIELD     CLOUDY    66  66 100 W7        29.88R
BUFFALO        PTSUNNY   68  62  82 S6        29.86R
MAPLE LAKE     CLOUDY    68  65  88 W3        29.87R
$$
MNZ037-044-045-052-053-291400-
   East Central Minnesota

CITY           SKY/WX    TMP DP  RH WIND       PRES   REMARKS
PRINCETON      CLOUDY    68  64  88 S3        29.87R
MORA           CLOUDY    64  61  88 S6        29.88R
CAMBRIDGE      CLOUDY    66  57  72 S5        29.85S
RUSH CITY      CLOUDY    63  61  94 SE3       29.87S
MOOSE LAKE     CLOUDY    59  54  82 CALM      29.86R
HINCKLEY       CLOUDY    63  63 100 S8        29.87R
CLOQUET        CLOUDY    54  50  87 CALM      29.87S
MCGREGOR       CLOUDY    63  57  82 NW5       29.88R
$$
MNZ071>073-080-081-089-090-097-098-291400-
   Southwest Minnesota

CITY           SKY/WX    TMP DP  RH WIND       PRES   REMARKS
MONTEVIDEO     CLOUDY    63  63 100 N9        29.90R
GRANITE FALLS  RAIN      63  62  96 NW9       29.90R
CANBY          RAIN      61  60  96 N8        29.90R
MARSHALL       CLOUDY    64  57  77 N9        29.86R
REDWOOD FALLS  CLOUDY    66  63  90 SW5       29.86R
OLIVIA         CLOUDY    63  59  88 SW5       29.86R
PIPESTONE      CLOUDY    64  63  94 SE3       29.87S
WINDOM         LGT RAIN  63  61  94 CALM      29.86F
WORTHINGTON    CLOUDY    63  61  94 CALM      29.87R
JACKSON        CLOUDY    63  63 100 E8        29.87F
TRACY          CLOUDY    66  64  91 SW9       29.85S
SLAYTON        CLOUDY    64  63  96 CALM      29.87F
$$
MNZ065>067-074>077-082>085-091>093-291400-
   South Central Minnesota

CITY           SKY/WX    TMP DP  RH WIND       PRES   REMARKS
MANKATO        CLOUDY    66  63  88 S7        29.89S
NEW ULM        LGT RAIN  64  63  94 SW6       29.87R
ST JAMES       CLOUDY    66  64  94 S6        29.89S
FAIRMONT       CLOUDY    63  57  82 SE7       29.89F
GLENCOE        CLOUDY    67  65  94 S6        29.85S
FARIBAULT      CLOUDY    66  63  88 S6        29.90S
OWATONNA       LGT RAIN  66  63  88 SW9       29.92R
WASECA         LGT RAIN  64  61  88 S9        29.92S
ALBERT LEA     CLOUDY    64  63  94 SW5       29.91F
$$
MNZ078>079-086>088-094>096-291400-
   Southeast Minnesota

CITY           SKY/WX    TMP DP  RH WIND       PRES   REMARKS
ROCHESTER      CLOUDY    66  62  87 SW16      29.93R
RED WING       PTSUNNY   66  63  88 S5        29.89S
STANTON        PTSUNNY   67  63  85 S7        29.88S
DODGE CENTER   RAIN      66  64  94 SW12G18   29.93R
WINONA         PTSUNNY   70  63  78 SW3       29.93R
AUSTIN         LGT RAIN  64  63  94 SW8       29.93S
PRESTON        CLOUDY    64  61  88 S10       29.94S
$$
ABBREVIATIONS USED IN REMARKS
   TC - TEMPERATURES IN CELSIUS
  WCI - WIND CHILL INDEX
   HX - HEAT INDEX
  VSB - VISIBILITY
$$


USA.gov is the U.S. government's official web portal to all federal, state and local government web resources and services.